Regional Weather Roundup
Issued by NWS

Home | Current Version | Previous Version | Graphics & Text | Print | Product List | Glossary On
Versions: 1 2 3 4 5 6 7 8 9 10 11 12 13 14 15 16 17 18 19 20 21 22 23 24 25 26 27 28 29 30 31 32 33 34 35 36 37 38 39 40 41 42 43 44 45 46 47 48 49 50
000
ASUS43 KMKX 262221
RWRWI

WISCONSIN REGIONAL WEATHER ROUNDUP
NATIONAL WEATHER SERVICE MILWAUKEE/SULLIVAN WI
500 PM CDT FRI MAY 26 2017

NOTE: "FAIR" INDICATES FEW OR NO CLOUDS BELOW 12,000 FEET WITH NO
SIGNIFICANT WEATHER AND/OR OBSTRUCTIONS TO VISIBILITY.

WIZ001-002-006>008-014>016-023>028-262300-
NORTHWEST WISCONSIN

CITY           SKY/WX    TMP DP  RH WIND       PRES   REMARKS
SUPERIOR ARPT  NOT AVBL
ASHLAND        MOSUNNY   73  55  53 S12       29.72F
HAYWARD        PTSUNNY   73  53  49 S13       29.74S
SIREN          MOSUNNY   76  54  46 SW14      29.71F
CUMBERLAND     MOSUNNY   70  55  60 SW14      29.75S
RICE LAKE      MOSUNNY   73  54  51 S12       29.76S
CHETEK         PTSUNNY   73  57  56 S7        29.76S
LADYSMITH      CLOUDY    70  55  59 S10       29.79R
EAU CLAIRE     PTSUNNY   71  56  58 S12       29.76S
MENOMONIE      PTSUNNY   75  56  52 S12       29.76S
NEW RICHMOND   MOSUNNY   74  56  51 S13       29.74S
OSCEOLA        MOSUNNY   77  57  49 S12       29.75S
$$

WIZ003>005-009-010-017-018-262300-
NORTH CENTRAL WISCONSIN

CITY           SKY/WX    TMP DP  RH WIND       PRES   REMARKS
MANITOWISH WTR CLOUDY    66  56  71 S8        29.79S
ARBOR VITAE    LGT RAIN  64  56  75 CALM      29.79S
WOODRUFF       LGT RAIN  64  56  75 CALM      29.79S
RHINELANDER    CLOUDY    70  52  52 S10       29.81S
EAGLE RIVER    LGT RAIN  66  50  55 S3        29.80F
LAND O LAKES   CLOUDY    67  52  60 S3        29.82S
PHILLIPS       CLOUDY    67  55  66 S5        29.78S
TOMAHAWK       CLOUDY    66  54  65 CALM      29.80S
MEDFORD        CLOUDY    68  54  61 SW8       29.79S
MERRILL        CLOUDY    69  54  57 S8        29.80S
$$

WIZ029-030-035-036-043>047-262300-
CENTRAL WISCONSIN

CITY           SKY/WX    TMP DP  RH WIND       PRES   REMARKS
WAUSAU         CLOUDY    71  53  52 S10       29.78F
MOSINEE        PTSUNNY   70  54  56 S10       29.81F
MARSHFIELD     PTSUNNY   69  50  50 S9        29.78F
STEVENS POINT  MOSUNNY   69  49  48 S12       29.81S
WAUPACA        CLOUDY    72  58  60 SE12      29.81S
WAUTOMA        CLOUDY    71  56  58 S7        29.81F
WISC RAPIDS    MOSUNNY   73  53  49 SW10      29.81S
CAMP DOUGLAS   PTSUNNY   70  55  59 S13       29.80S
$$

WIZ011>013-019>022-031-037>040-048>050-262300-
NORTHEAST WISCONSIN

CITY           SKY/WX    TMP DP  RH WIND       PRES   REMARKS
ANTIGO         CLOUDY    69  54  58 S10       29.82S
SHAWANO        CLOUDY    74  52  46 CALM      29.81S
OCONTO         PTSUNNY   67  54  61 SE7       29.83R
STURGEON BAY   CLOUDY    65  52  62 SE9       29.85S
GREEN BAY      CLOUDY    69  58  67 S9        29.83S
MANITOWOC      CLOUDY    61  52  72 SE7       29.86S
APPLETON       PTSUNNY   66  52  59 SE9       29.82S
CLINTONVILLE   CLOUDY    70  54  56 S9        29.81S
OSHKOSH        CLOUDY    68  55  63 SE10      29.83R
$$

WIZ032>034-041-042-053>061-262300-
SOUTHWEST WISCONSIN

CITY           SKY/WX    TMP DP  RH WIND       PRES   REMARKS
LA CROSSE      CLOUDY    72  56  57 S9        29.78F
SPARTA         MOSUNNY   71  55  57 S8        29.81S
VIROQUA        CLOUDY    68  57  69 N7        29.82R
BOSCOBEL       CLOUDY    69  57  65 VRB5      29.81F
PRAIRIE DU CHI SUNNY     69  56  64 E8        29.79F
PLATTEVILLE    CLOUDY    66  59  79 E7        29.82R
$$

WIZ056-057-062-063-064-067-068-262300-
SOUTH CENTRAL WISCONSIN

CITY           SKY/WX    TMP DP  RH WIND       PRES   REMARKS
REEDSBURG      CLOUDY    66  56  69 SE5       29.82R
BARABOO/DELLS  CLOUDY    64  54  68 S8        29.82F
LONE ROCK      CLOUDY    67  56  67 VRB7      29.82S
MINERAL POINT  MOSUNNY   66  59  77 SE3       29.82R
MADISON        LGT RAIN  61  59  93 S3        29.83R
MIDDLETON      CLOUDY    63  60  88 CALM      29.83F
WATERTOWN      CLOUDY    63  57  81 SE6       29.84R
MONROE         CLOUDY    61  57  88 NE9       29.81F
JANESVILLE     LGT RAIN  61  55  82 SE7       29.83S
$$

WIZ051-052-058>065-066-070>072-262300-
SOUTHEAST WISCONSIN

CITY           SKY/WX    TMP DP  RH WIND       PRES   REMARKS
MILWAUKEE      LGT RAIN  60  55  83 SE5       29.86S
WAUKESHA       LGT RAIN  59  54  82 SE9       29.86R
MILWAUKEE/TIMM PTSUNNY   61  52  72 SE5       29.86R
RACINE         LGT RAIN  58  53  84 E5        29.87S
KENOSHA        RAIN      57  54  89 NE7       29.85S FOG
FOND DU LAC    CLOUDY    68  53  58 SE8       29.83S
SHEBOYGAN      PTSUNNY   65  54  67 SE6       29.85S
WEST BEND      PTSUNNY   63  54  72 SE6       29.85S
JUNEAU         CLOUDY    65  55  68 SE7       29.85R
$$

LSZ147-162-262300-
LAKE SUPERIOR

STATION/POSITION TIME  TEMP    WIND        PRES    WAVE
                       AIR SEA DIR/SP/G            HT/PER
                 (UTC) (F)     (DEG/KT/KT) (MB)    (FT/S)
W MID LAKE BUOY  2150   41 37   60/ 10/ 12 1007.7F   0
DEVILS ISLAND    2200   56     120/ 12/ 14 1006.3F
PORT WING        2120   45      40/ 11/ 18 1006.1F
SAXON HARBOR     2130          170/  3/  5 1006.8S
$$

LMZ867-665-643>646-262300-
LAKE MICHIGAN

STATION/POSITION TIME  TEMP    WIND        PRES    WAVE
                       AIR SEA DIR/SP/G            HT/PER
                 (UTC) (F)     (DEG/KT/KT) (MB)    (FT/S)
CHAMBERS ISLAND  2140   65      80/  6/  8 1010.2F
N MID LAKE BUOY  2150   46 43  230/  6/  6 1011.7F   0
NORTHPORT PIER   2130   58     150/  5/  7 1010.5F
KEWAUNEE LAKESHO 2154   51     130/  5/  6 1010.6S
SHEBOYGAN LAKESH 2200   56     150/  9/  9 1010.7F
PORT WASHINGTON  2130   53     170/  2/  3 1012.2R
ATWATER BUOY     2109   47     140/  2/  2 1011.4
MILWAUKEE LAKESH 2200   49      40/  1/  1   N/A
S MID LAKE BUOY  2150   49 48   20/  4/  6 1011.2S   1
KENOSHA   LAKESH 2200   51      40/  6/  7 1010.8
$$

TC  - TEMPERATURE IN CELSIUS
VSB - VISIBILITY IN STATUTE MILES
WCI - WIND CHILL INDEX
HX  - HEAT INDEX




USA.gov is the U.S. government's official web portal to all federal, state and local government web resources and services.